Time,TemperatureF,DewpointF,PressureIn,WindDirection,WindDirectionDegrees,WindSpeedMPH,WindSpeedGustMPH,Humidity,HourlyPrecipIn,Conditions,Clouds,dailyrainin,SolarRadiationWatts/m^2,SoftwareType,DateUTC
2013-03-03 00:00:00,24.9,22.0,29.87,NW,309,6.0,-999.0,88,-99.99,,,0.00,0,weatherlink.com 1.10,2013-03-03 05:00:00,
2013-03-03 00:15:00,24.8,22.0,29.87,NW,306,5.0,-999.0,87,-99.99,,,0.00,0,weatherlink.com 1.10,2013-03-03 05:15:00,
2013-03-03 00:30:00,24.7,21.0,29.86,NW,313,5.0,-999.0,86,-99.99,,,0.00,0,weatherlink.com 1.10,2013-03-03 05:30:00,
2013-03-03 00:45:00,24.5,21.0,29.87,WNW,302,10.0,-999.0,85,-99.99,,,0.00,0,weatherlink.com 1.10,2013-03-03 05:45:00,
2013-03-03 01:00:00,24.4,20.0,29.87,NW,308,2.0,-999.0,84,-99.99,,,0.00,0,weatherlink.com 1.10,2013-03-03 06:00:00,
2013-03-03 01:15:00,24.4,20.0,29.87,NW,309,5.0,-999.0,84,-99.99,,,0.00,0,weatherlink.com 1.10,2013-03-03 06:15:00,
2013-03-03 01:30:00,24.3,20.0,29.87,NW,319,5.0,-999.0,84,-99.99,,,0.00,0,weatherlink.com 1.10,2013-03-03 06:30:00,
2013-03-03 01:45:00,24.2,20.0,29.87,NW,309,5.0,-999.0,84,-99.99,,,0.00,0,weatherlink.com 1.10,2013-03-03 06:45:00,
2013-03-03 02:00:00,24.1,20.0,29.86,WNW,302,5.0,-999.0,84,-99.99,,,0.00,0,weatherlink.com 1.10,2013-03-03 07:00:00,
2013-03-03 02:15:00,24.0,20.0,29.86,WNW,302,1.0,-999.0,84,-99.99,,,0.00,0,weatherlink.com 1.10,2013-03-03 07:15:00,
2013-03-03 02:30:00,23.8,20.0,29.86,WNW,302,2.0,-999.0,85,-99.99,,,0.00,0,weatherlink.com 1.10,2013-03-03 07:30:00,
2013-03-03 02:45:00,23.6,20.0,29.85,WNW,302,4.0,-999.0,85,-99.99,,,0.00,0,weatherlink.com 1.10,2013-03-03 07:45:00,
2013-03-03 03:00:00,23.5,20.0,29.85,WNW,302,1.0,-999.0,86,-99.99,,,0.00,0,weatherlink.com 1.10,2013-03-03 08:00:00,
2013-03-03 03:15:00,23.5,20.0,29.85,WNW,287,3.0,-999.0,86,-99.99,,,0.00,0,weatherlink.com 1.10,2013-03-03 08:15:00,
2013-03-03 03:31:00,23.4,20.0,29.85,NW,304,9.0,-999.0,86,-99.99,,,0.00,0,weatherlink.com 1.10,2013-03-03 08:31:00,
2013-03-03 03:46:00,23.4,20.0,29.85,NW,311,7.0,-999.0,85,-99.99,,,0.00,0,weatherlink.com 1.10,2013-03-03 08:46:00,
2013-03-03 04:01:00,23.2,19.0,29.85,WNW,294,6.0,-999.0,84,-99.99,,,0.00,0,weatherlink.com 1.10,2013-03-03 09:01:00,
2013-03-03 04:16:00,23.1,19.0,29.85,WNW,290,6.0,-999.0,84,-99.99,,,0.00,0,weatherlink.com 1.10,2013-03-03 09:16:00,
2013-03-03 04:31:00,23.1,19.0,29.85,WNW,303,2.0,-999.0,85,-99.99,,,0.00,0,weatherlink.com 1.10,2013-03-03 09:31:00,
2013-03-03 04:46:00,22.9,19.0,29.85,WNW,300,2.0,-999.0,85,-99.99,,,0.00,0,weatherlink.com 1.10,2013-03-03 09:46:00,
2013-03-03 05:01:00,22.8,19.0,29.86,WNW,293,2.0,-999.0,85,-99.99,,,0.00,0,weatherlink.com 1.10,2013-03-03 10:01:00,
2013-03-03 05:16:00,22.7,19.0,29.86,WNW,301,2.0,-999.0,85,-99.99,,,0.00,0,weatherlink.com 1.10,2013-03-03 10:16:00,
2013-03-03 05:31:00,22.7,19.0,29.86,NW,304,1.0,-999.0,86,-99.99,,,0.00,0,weatherlink.com 1.10,2013-03-03 10:31:00,
2013-03-03 05:46:00,22.5,19.0,29.86,WNW,293,5.0,-999.0,86,-99.99,,,0.00,0,weatherlink.com 1.10,2013-03-03 10:46:00,
2013-03-03 06:01:00,22.2,19.0,29.86,WNW,290,2.0,-999.0,87,-99.99,,,0.00,0,weatherlink.com 1.10,2013-03-03 11:01:00,
2013-03-03 06:16:00,22.0,19.0,29.86,WNW,295,5.0,-999.0,87,-99.99,,,0.00,0,weatherlink.com 1.10,2013-03-03 11:16:00,
2013-03-03 06:31:00,21.9,19.0,29.86,WNW,302,5.0,-999.0,88,-99.99,,,0.00,0,weatherlink.com 1.10,2013-03-03 11:31:00,
2013-03-03 06:46:00,21.8,19.0,29.87,WNW,299,3.0,-999.0,88,-99.99,,,0.00,0,weatherlink.com 1.10,2013-03-03 11:46:00,
2013-03-03 07:01:00,21.7,19.0,29.87,WNW,298,4.0,-999.0,88,-99.99,,,0.00,7,weatherlink.com 1.10,2013-03-03 12:01:00,
2013-03-03 07:16:00,21.6,19.0,29.87,WNW,298,2.0,-999.0,89,-99.99,,,0.00,28,weatherlink.com 1.10,2013-03-03 12:16:00,
2013-03-03 07:31:00,21.8,19.0,29.88,WNW,298,4.0,-999.0,89,-99.99,,,0.00,62,weatherlink.com 1.10,2013-03-03 12:31:00,
2013-03-03 07:46:00,21.9,19.0,29.88,WNW,296,4.0,-999.0,89,-99.99,,,0.00,84,weatherlink.com 1.10,2013-03-03 12:46:00,
2013-03-03 08:01:00,22.1,20.0,29.88,WNW,289,5.0,-999.0,90,-99.99,,,0.00,91,weatherlink.com 1.10,2013-03-03 13:01:00,
2013-03-03 08:16:00,22.1,20.0,29.88,WNW,286,6.0,-999.0,90,-99.99,,,0.00,116,weatherlink.com 1.10,2013-03-03 13:16:00,
2013-03-03 08:31:00,21.9,20.0,29.89,WNW,286,6.0,-999.0,90,-99.99,,,0.00,134,weatherlink.com 1.10,2013-03-03 13:31:00,
2013-03-03 08:46:00,22.0,20.0,29.88,WNW,288,2.0,-999.0,90,-99.99,,,0.00,151,weatherlink.com 1.10,2013-03-03 13:46:00,
2013-03-03 09:01:00,22.2,20.0,29.88,WNW,285,6.0,-999.0,89,-99.99,,,0.00,202,weatherlink.com 1.10,2013-03-03 14:01:00,
2013-03-03 09:16:00,22.2,19.0,29.88,WNW,297,8.0,-999.0,88,-99.99,,,0.00,206,weatherlink.com 1.10,2013-03-03 14:16:00,
2013-03-03 09:31:00,22.6,19.0,29.88,WNW,286,6.0,-999.0,87,-99.99,,,0.00,290,weatherlink.com 1.10,2013-03-03 14:31:00,
2013-03-03 09:46:00,22.9,19.0,29.88,WNW,284,7.0,-999.0,86,-99.99,,,0.00,241,weatherlink.com 1.10,2013-03-03 14:46:00,
2013-03-03 10:01:00,22.9,19.0,29.87,West,278,9.0,-999.0,85,-99.99,,,0.00,334,weatherlink.com 1.10,2013-03-03 15:01:00,
2013-03-03 10:16:00,23.4,19.0,29.87,West,275,4.0,-999.0,84,-99.99,,,0.00,450,weatherlink.com 1.10,2013-03-03 15:16:00,
2013-03-03 10:31:00,23.4,19.0,29.87,West,273,7.0,-999.0,83,-99.99,,,0.00,230,weatherlink.com 1.10,2013-03-03 15:31:00,
2013-03-03 10:46:00,23.3,19.0,29.87,WNW,297,5.0,-999.0,83,-99.99,,,0.00,425,weatherlink.com 1.10,2013-03-03 15:46:00,
2013-03-03 11:01:00,23.6,19.0,29.87,West,265,8.0,-999.0,83,-99.99,,,0.00,202,weatherlink.com 1.10,2013-03-03 16:01:00,
2013-03-03 11:16:00,23.5,19.0,29.87,West,267,14.0,-999.0,84,-99.99,,,0.00,295,weatherlink.com 1.10,2013-03-03 16:16:00,
2013-03-03 11:31:00,23.6,20.0,29.87,West,280,7.0,-999.0,84,-99.99,,,0.00,241,weatherlink.com 1.10,2013-03-03 16:31:00,
2013-03-03 11:46:00,23.5,19.0,29.87,NW,311,10.0,-999.0,84,-99.99,,,0.00,327,weatherlink.com 1.10,2013-03-03 16:46:00,
2013-03-03 12:01:00,23.5,19.0,29.87,WNW,303,7.0,-999.0,84,-99.99,,,0.00,424,weatherlink.com 1.10,2013-03-03 17:01:00,
2013-03-03 12:16:00,23.8,19.0,29.87,WNW,296,11.0,-999.0,81,-99.99,,,0.00,309,weatherlink.com 1.10,2013-03-03 17:16:00,
2013-03-03 12:31:00,24.1,18.0,29.86,WNW,288,5.0,-999.0,78,-99.99,,,0.00,329,weatherlink.com 1.10,2013-03-03 17:31:00,
2013-03-03 12:46:00,24.1,18.0,29.86,West,265,8.0,-999.0,76,-99.99,,,0.00,359,weatherlink.com 1.10,2013-03-03 17:46:00,
2013-03-03 13:01:00,24.5,18.0,29.85,NW,321,7.0,-999.0,77,-99.99,,,0.00,313,weatherlink.com 1.10,2013-03-03 18:01:00,
2013-03-03 13:16:00,24.5,18.0,29.85,WNW,300,11.0,-999.0,77,-99.99,,,0.00,350,weatherlink.com 1.10,2013-03-03 18:16:00,
2013-03-03 13:31:00,24.7,18.0,29.85,West,274,12.0,-999.0,74,-99.99,,,0.00,353,weatherlink.com 1.10,2013-03-03 18:31:00,
2013-03-03 13:46:00,25.2,17.0,29.85,WNW,284,4.0,-999.0,71,-99.99,,,0.00,308,weatherlink.com 1.10,2013-03-03 18:46:00,
2013-03-03 14:01:00,25.1,17.0,29.85,WNW,285,10.0,-999.0,71,-99.99,,,0.00,271,weatherlink.com 1.10,2013-03-03 19:01:00,
2013-03-03 14:16:00,24.8,18.0,29.85,SW,232,6.0,-999.0,74,-99.99,,,0.00,283,weatherlink.com 1.10,2013-03-03 19:16:00,
2013-03-03 14:31:00,24.3,18.0,29.85,West,275,10.0,-999.0,77,-99.99,,,0.00,274,weatherlink.com 1.10,2013-03-03 19:31:00,
2013-03-03 14:47:00,24.4,18.0,29.85,WNW,286,12.0,-999.0,76,-99.99,,,0.00,234,weatherlink.com 1.10,2013-03-03 19:47:00,
2013-03-03 15:02:00,24.4,18.0,29.85,West,274,6.0,-999.0,76,-99.99,,,0.00,213,weatherlink.com 1.10,2013-03-03 20:02:00,
2013-03-03 15:17:00,24.6,18.0,29.85,West,269,4.0,-999.0,75,-99.99,,,0.00,260,weatherlink.com 1.10,2013-03-03 20:17:00,
2013-03-03 15:32:00,24.8,18.0,29.85,West,261,11.0,-999.0,74,-99.99,,,0.00,216,weatherlink.com 1.10,2013-03-03 20:32:00,
2013-03-03 15:47:00,24.5,18.0,29.86,WNW,291,7.0,-999.0,76,-99.99,,,0.00,165,weatherlink.com 1.10,2013-03-03 20:47:00,
2013-03-03 16:02:00,24.2,18.0,29.86,West,280,9.0,-999.0,77,-99.99,,,0.00,142,weatherlink.com 1.10,2013-03-03 21:02:00,
2013-03-03 16:17:00,23.8,19.0,29.86,WNW,298,6.0,-999.0,80,-99.99,,,0.00,144,weatherlink.com 1.10,2013-03-03 21:17:00,
2013-03-03 16:32:00,23.6,18.0,29.86,WNW,291,7.0,-999.0,80,-99.99,,,0.00,125,weatherlink.com 1.10,2013-03-03 21:32:00,
2013-03-03 16:47:00,23.8,18.0,29.87,WSW,240,7.0,-999.0,78,-99.99,,,0.00,123,weatherlink.com 1.10,2013-03-03 21:47:00,
2013-03-03 17:02:00,23.9,18.0,29.87,WNW,283,9.0,-999.0,78,-99.99,,,0.00,93,weatherlink.com 1.10,2013-03-03 22:02:00,
2013-03-03 17:17:00,23.7,18.0,29.87,West,279,2.0,-999.0,78,-99.99,,,0.00,65,weatherlink.com 1.10,2013-03-03 22:17:00,
2013-03-03 17:47:00,23.1,18.0,29.88,WNW,290,6.0,-999.0,81,-99.99,,,0.00,7,weatherlink.com 1.10,2013-03-03 22:47:00,
2013-03-03 18:02:00,22.8,18.0,29.87,West,270,6.0,-999.0,81,-99.99,,,0.00,0,weatherlink.com 1.10,2013-03-03 23:02:00,
2013-03-03 18:17:00,22.7,18.0,29.88,WSW,247,6.0,-999.0,83,-99.99,,,0.00,0,weatherlink.com 1.10,2013-03-03 23:17:00,
2013-03-03 18:32:00,22.6,19.0,29.88,WSW,244,6.0,-999.0,84,-99.99,,,0.00,0,weatherlink.com 1.10,2013-03-03 23:32:00,
2013-03-03 18:47:00,22.7,19.0,29.89,WNW,284,8.0,-999.0,85,-99.99,,,0.00,0,weatherlink.com 1.10,2013-03-03 23:47:00,
2013-03-03 19:02:00,22.8,19.0,29.88,West,259,7.0,-999.0,85,-99.99,,,0.00,0,weatherlink.com 1.10,2013-03-04 00:02:00,
2013-03-03 19:17:00,22.8,19.0,29.89,West,266,6.0,-999.0,85,-99.99,,,0.00,0,weatherlink.com 1.10,2013-03-04 00:17:00,
2013-03-03 19:32:00,23.0,19.0,29.89,WSW,248,8.0,-999.0,85,-99.99,,,0.00,0,weatherlink.com 1.10,2013-03-04 00:32:00,
2013-03-03 19:47:00,23.1,19.0,29.88,WSW,240,9.0,-999.0,85,-99.99,,,0.00,0,weatherlink.com 1.10,2013-03-04 00:47:00,
2013-03-03 20:02:00,23.2,19.0,29.89,SW,225,5.0,-999.0,85,-99.99,,,0.00,0,weatherlink.com 1.10,2013-03-04 01:02:00,
2013-03-03 20:17:00,23.4,20.0,29.89,WSW,252,2.0,-999.0,85,-99.99,,,0.00,0,weatherlink.com 1.10,2013-03-04 01:17:00,
2013-03-03 20:32:00,23.5,20.0,29.89,West,261,5.0,-999.0,86,-99.99,,,0.00,0,weatherlink.com 1.10,2013-03-04 01:32:00,
2013-03-03 20:47:00,23.6,20.0,29.89,WSW,244,6.0,-999.0,86,-99.99,,,0.00,0,weatherlink.com 1.10,2013-03-04 01:47:00,
2013-03-03 21:02:00,23.7,20.0,29.89,West,273,6.0,-999.0,86,-99.99,,,0.00,0,weatherlink.com 1.10,2013-03-04 02:02:00,
2013-03-03 21:17:00,23.7,20.0,29.89,WNW,285,9.0,-999.0,87,-99.99,,,0.00,0,weatherlink.com 1.10,2013-03-04 02:17:00,
2013-03-03 21:32:00,23.6,20.0,29.89,WSW,252,4.0,-999.0,87,-99.99,,,0.00,0,weatherlink.com 1.10,2013-03-04 02:32:00,
2013-03-03 21:47:00,23.6,20.0,29.89,WSW,246,7.0,-999.0,87,-99.99,,,0.00,0,weatherlink.com 1.10,2013-03-04 02:47:00,
2013-03-03 22:02:00,23.8,21.0,29.89,WSW,257,3.0,-999.0,88,-99.99,,,0.00,0,weatherlink.com 1.10,2013-03-04 03:02:00,
2013-03-03 22:17:00,23.8,21.0,29.89,WSW,258,4.0,-999.0,88,-99.99,,,0.00,0,weatherlink.com 1.10,2013-03-04 03:17:00,
2013-03-03 22:32:00,23.8,21.0,29.89,WSW,246,9.0,-999.0,88,-99.99,,,0.00,0,weatherlink.com 1.10,2013-03-04 03:32:00,
2013-03-03 22:47:00,23.9,21.0,29.88,West,273,9.0,-999.0,88,-99.99,,,0.00,0,weatherlink.com 1.10,2013-03-04 03:47:00,
2013-03-03 23:02:00,24.0,21.0,29.88,West,265,9.0,-999.0,88,-99.99,,,0.00,0,weatherlink.com 1.10,2013-03-04 04:02:00,
2013-03-03 23:17:00,24.1,21.0,29.88,WSW,241,11.0,-999.0,87,-99.99,,,0.00,0,weatherlink.com 1.10,2013-03-04 04:17:00,
2013-03-03 23:32:00,24.2,21.0,29.88,West,267,5.0,-999.0,86,-99.99,,,0.00,0,weatherlink.com 1.10,2013-03-04 04:32:00,
2013-03-03 23:47:00,24.2,21.0,29.88,West,262,6.0,-999.0,86,-99.99,,,0.00,0,weatherlink.com 1.10,2013-03-04 04:47:00,